Location: San Vito
(41.8833°N, 12.9833°E)
Time: 03:01:59
(UTC+00:00)

Cosmos 1898 Rocket - Pass Details

Date: 17 November 2019
Orbit: 753 x 785 km, 74.0° (Epoch: 15 December)

Event Time Altitude Azimuth Distance (km) Brightness Sun altitude
Exits shadow 03:41:12 62° 203° (SSW) 864 3.6 -25.7°
Maximum altitude 03:42:08 88° 291° (WNW) 774 3.4 -25.5°
Drops below altitude 10° 03:47:26 10° 19° (NNE) 2,326 6.2 -24.5°
Sets 03:49:50 0° 20° (NNE) 3,262 7.0 -24.1°
